Weather History for CYMO - September, 2013

Change the Weather History Date:

Thursday, September 12, 2013

  Actual Average Record
Temperature  
Mean Temperature 48 °F -  
Max Temperature 55 °F 62 °F 84 °F (2003)
Min Temperature 41 °F 43 °F 33 °F (2007)
Degree Days  
Heating Degree Days 17    
Moisture  
Dew Point 45 °F    
Average Humidity 91    
Maximum Humidity 100    
Minimum Humidity 66    
Precipitation  
Precipitation 0.00 in - - ()
Sea Level Pressure  
Sea Level Pressure 29.87 in    
Wind  
Wind Speed 9 mph ()    
Max Wind Speed 20 mph    
Max Gust Speed 29 mph    
Visibility 5.9 miles    
Events Rain    
Averages and records for this station are not official NWS values.
T = Trace of Precipitation, MM = Missing Value Source: Averaged Metar Reports

Daily Weather History Graph

Daily Weather History Graph

Search for Another Location

Airport or City:

Trip Planner

Search our weather history database for the weather conditions in past years. The results will help you decide how hot, cold, wet, or windy it might be!

Date:

Astronomy

Sep. 12, 2013 Rise Set
Actual Time 6:53 AM EDT 7:42 PM EDT
Civil Twilight 6:19 AM EDT 8:16 PM EDT
Nautical Twilight 5:39 AM EDT 8:56 PM EDT
Astronomical Twilight 4:55 AM EDT 9:39 PM EDT
Moon 3:04 PM EDT (9/12) 11:52 PM EDT (9/12)
Length of Visible Light 13h 57m
Length of Day
12h 49m
Waxing Crescent, 50% of the Moon is Illuminated
Sep 12
Waxing Crescent
Sep 12
First Quarter
Sep 19
Full
Sep 26
Last Quarter
Oct 4
New

Hourly Weather History & Observations

Time (EDT) Temp. Windchill Dew Point Humidity Pressure Visibility Wind Dir Wind Speed Gust Speed Precip Events Conditions
12:00 AM 55.4 °F - 53.6 °F 94% 29.80 in 9.0 mi WSW 4.6 mph - N/A   Overcast
12:04 AM 55.4 °F - 53.6 °F 94% 29.80 in 9.0 mi WSW 5.8 mph - N/A   Overcast
12:10 AM 55.4 °F - 53.6 °F 94% 29.79 in 9.0 mi WSW 6.9 mph - N/A Rain Light Rain
12:18 AM 55.4 °F - 53.6 °F 94% 29.79 in 5.0 mi WSW 4.6 mph - N/A Rain Light Rain
12:37 AM 55.4 °F - 53.6 °F 94% 29.79 in 6.0 mi WSW 4.6 mph - N/A   Overcast
1:00 AM 55.4 °F - 53.6 °F 94% 29.79 in 9.0 mi West 3.5 mph - N/A   Overcast
1:19 AM 55.4 °F - 53.6 °F 94% 29.79 in 5.0 mi West 5.8 mph - N/A   Overcast
1:24 AM 55.4 °F - 53.6 °F 94% 29.79 in 2.5 mi West 6.9 mph - N/A   Overcast
1:27 AM 55.4 °F - 53.6 °F 94% 29.79 in 1.8 mi West 5.8 mph - N/A   Overcast
1:33 AM 53.6 °F - 51.8 °F 94% 29.80 in 1.2 mi North 13.8 mph 19.6 mph N/A Rain Light Rain
1:42 AM 51.8 °F - 50.0 °F 94% 29.80 in 2.0 mi NNW 11.5 mph 17.3 mph N/A Rain Light Rain
1:44 AM 51.8 °F - 50.0 °F 94% 29.80 in 2.0 mi NNW 11.5 mph 17.3 mph N/A Rain Light Rain
1:48 AM 51.8 °F - 50.0 °F 94% 29.81 in 2.0 mi NNW 9.2 mph 17.3 mph N/A Rain Light Rain
1:49 AM 51.8 °F - 50.0 °F 94% 29.80 in 2.0 mi NNW 9.2 mph - N/A Rain Light Rain
1:52 AM 51.8 °F - 50.0 °F 94% 29.81 in 1.8 mi NNW 8.1 mph - N/A Rain Light Rain
2:00 AM 50.0 °F - 50.0 °F 100% 29.81 in 1.5 mi NNW 11.5 mph - N/A Rain Light Rain
2:04 AM 50.0 °F - 50.0 °F 100% 29.81 in 2.0 mi North 10.4 mph - N/A Rain Light Rain
2:12 AM 50.0 °F - 50.0 °F 100% 29.81 in 1.8 mi NW 10.4 mph - N/A   Overcast
2:16 AM 50.0 °F - 48.2 °F 94% 29.81 in 1.5 mi NW 11.5 mph 19.6 mph N/A Rain Light Rain
2:19 AM 50.0 °F - 48.2 °F 94% 29.81 in 2.2 mi NNW 12.7 mph 19.6 mph N/A Rain Light Rain
2:22 AM 50.0 °F - 48.2 °F 94% 29.81 in 3.0 mi NNW 12.7 mph 19.6 mph N/A Rain Light Rain
2:26 AM 50.0 °F - 48.2 °F 94% 29.81 in 6.0 mi NNW 10.4 mph 19.6 mph N/A Rain Light Rain
2:27 AM 50.0 °F - 48.2 °F 94% 29.81 in 6.0 mi NNW 9.2 mph 17.3 mph N/A   Overcast
3:00 AM 48.2 °F - 48.2 °F 100% 29.82 in 5.0 mi NW 10.4 mph - N/A   Overcast
3:08 AM 48.2 °F - 48.2 °F 100% 29.82 in 2.5 mi NW 10.4 mph - N/A   Overcast
3:15 AM 48.2 °F - 48.2 °F 100% 29.82 in 1.8 mi NW 9.2 mph - N/A   Overcast
3:23 AM 48.2 °F - 48.2 °F 100% 29.83 in 2.2 mi NW 9.2 mph - N/A   Overcast
3:34 AM 48.2 °F - 46.4 °F 93% 29.83 in 3.0 mi NNW 11.5 mph 18.4 mph N/A   Overcast
3:39 AM 48.2 °F - 46.4 °F 93% 29.83 in 6.0 mi NW 12.7 mph 19.6 mph N/A   Overcast
3:57 AM 48.2 °F - 46.4 °F 93% 29.83 in 9.0 mi NW 9.2 mph 17.3 mph N/A   Overcast
3:58 AM 48.2 °F - 46.4 °F 93% 29.83 in 9.0 mi NW 9.2 mph 17.3 mph N/A   Overcast
4:00 AM 48.2 °F - 46.4 °F 93% 29.83 in 9.0 mi NW 10.4 mph 17.3 mph N/A   Overcast
4:02 AM 48.2 °F - 46.4 °F 93% 29.83 in 9.0 mi NW 10.4 mph 17.3 mph N/A   Overcast
4:48 AM 46.4 °F 41.9 °F 46.4 °F 100% 29.85 in 5.0 mi NW 9.2 mph 17.3 mph N/A   Overcast
4:57 AM 46.4 °F 41.5 °F 46.4 °F 100% 29.85 in 6.0 mi NW 10.4 mph 17.3 mph N/A   Overcast
5:00 AM 46.4 °F 40.7 °F 46.4 °F 100% 29.85 in 7.0 mi NW 12.7 mph 19.6 mph N/A   Overcast
5:03 AM 46.4 °F 40.7 °F 46.4 °F 100% 29.85 in 5.0 mi NNW 12.7 mph 19.6 mph N/A   Overcast
5:07 AM 46.4 °F 40.4 °F 44.6 °F 93% 29.85 in 2.5 mi NNW 13.8 mph 19.6 mph N/A   Overcast
5:11 AM 46.4 °F 40.7 °F 44.6 °F 93% 29.85 in 2.0 mi NNW 12.7 mph 19.6 mph N/A Rain Light Rain
5:20 AM 46.4 °F 40.7 °F 44.6 °F 93% 29.85 in 2.2 mi NW 12.7 mph 19.6 mph N/A Rain Light Rain
5:24 AM 46.4 °F 40.7 °F 44.6 °F 93% 29.85 in 2.0 mi NNW 12.7 mph 19.6 mph N/A Rain Light Rain
5:26 AM 46.4 °F 41.1 °F 44.6 °F 93% 29.85 in 2.0 mi NNW 11.5 mph 19.6 mph N/A Rain Light Rain
5:27 AM 46.4 °F 41.1 °F 44.6 °F 93% 29.85 in 2.0 mi NNW 11.5 mph 19.6 mph N/A Rain Light Rain
5:33 AM 46.4 °F 41.1 °F 44.6 °F 93% 29.86 in 3.0 mi NNW 11.5 mph 17.3 mph N/A Rain Light Rain
5:40 AM 46.4 °F 40.1 °F 44.6 °F 93% 29.86 in 3.0 mi NNW 15.0 mph 20.7 mph N/A   Overcast
5:47 AM 46.4 °F 40.7 °F 44.6 °F 93% 29.86 in 6.0 mi NNW 12.7 mph 20.7 mph N/A   Overcast
5:50 AM 46.4 °F 41.1 °F 44.6 °F 93% 29.86 in 9.0 mi NNW 11.5 mph 18.4 mph N/A   Overcast
5:52 AM 46.4 °F 40.4 °F 44.6 °F 93% 29.86 in 9.0 mi NNW 13.8 mph - N/A   Overcast
5:53 AM 46.4 °F 40.7 °F 44.6 °F 93% 29.86 in 9.0 mi NNW 12.7 mph 18.4 mph N/A   Overcast
5:54 AM 46.4 °F 41.1 °F 44.6 °F 93% 29.86 in 9.0 mi NNW 11.5 mph 18.4 mph N/A   Overcast
5:55 AM 46.4 °F 41.1 °F 44.6 °F 93% 29.86 in 9.0 mi NNW 11.5 mph 18.4 mph N/A   Overcast
6:00 AM 46.4 °F 40.4 °F 44.6 °F 93% 29.86 in 9.0 mi NNW 13.8 mph 19.6 mph N/A   Overcast
6:14 AM 46.4 °F 41.5 °F 44.6 °F 93% 29.86 in 9.0 mi NW 10.4 mph 18.4 mph N/A   Overcast
6:22 AM 46.4 °F 40.4 °F 44.6 °F 93% 29.86 in 5.0 mi NNW 13.8 mph 20.7 mph N/A   Overcast
6:28 AM 46.4 °F 40.7 °F 44.6 °F 93% 29.87 in 6.0 mi NNW 12.7 mph 20.7 mph N/A   Overcast
6:33 AM 46.4 °F 41.5 °F 44.6 °F 93% 29.87 in 5.0 mi NNW 10.4 mph 20.7 mph N/A   Overcast
6:39 AM 46.4 °F 41.1 °F 44.6 °F 93% 29.87 in 6.0 mi NNW 11.5 mph 20.7 mph N/A   Overcast
6:49 AM 46.4 °F 41.1 °F 44.6 °F 93% 29.88 in 6.0 mi NNW 11.5 mph 17.3 mph N/A   Overcast
6:55 AM 46.4 °F 41.5 °F 44.6 °F 93% 29.88 in 5.0 mi NNW 10.4 mph 18.4 mph N/A   Overcast
6:58 AM 44.6 °F 38.8 °F 44.6 °F 100% 29.88 in 4.0 mi NNW 11.5 mph 18.4 mph N/A   Overcast
7:00 AM 44.6 °F 39.2 °F 44.6 °F 100% 29.88 in 4.0 mi NNW 10.4 mph 18.4 mph N/A   Overcast
7:16 AM 44.6 °F 38.4 °F 42.8 °F 93% 29.89 in 5.0 mi NNW 12.7 mph 20.7 mph N/A   Overcast
7:17 AM 44.6 °F 38.8 °F 42.8 °F 93% 29.89 in 6.0 mi NNW 11.5 mph 20.7 mph N/A   Overcast
7:20 AM 44.6 °F 38.4 °F 42.8 °F 93% 29.89 in 9.0 mi NNW 12.7 mph 20.7 mph N/A   Overcast
7:22 AM 44.6 °F 38.4 °F 42.8 °F 93% 29.89 in 9.0 mi NNW 12.7 mph 20.7 mph N/A   Overcast
7:24 AM 44.6 °F 39.2 °F 42.8 °F 93% 29.89 in 9.0 mi NNW 10.4 mph 19.6 mph N/A   Overcast
8:00 AM 44.6 °F 38.8 °F 42.8 °F 93% 29.90 in 9.0 mi NNW 11.5 mph - N/A   Overcast
8:42 AM 44.6 °F 39.7 °F 42.8 °F 93% 29.91 in 9.0 mi NW 9.2 mph - N/A Rain Light Rain
8:53 AM 44.6 °F 39.7 °F 42.8 °F 93% 29.92 in 9.0 mi NNW 9.2 mph - N/A   Overcast
9:00 AM 46.4 °F 41.1 °F 42.8 °F 87% 29.92 in 9.0 mi NNW 11.5 mph 17.3 mph N/A   Overcast
10:00 AM 46.4 °F 40.7 °F 42.8 °F 87% 29.93 in 9.0 mi NNW 12.7 mph 24.2 mph N/A   Overcast
11:00 AM 48.2 °F - 41.0 °F 76% 29.95 in 9.0 mi North 13.8 mph 24.2 mph N/A   Overcast
12:00 PM 46.4 °F 40.7 °F 39.2 °F 76% 29.96 in 9.0 mi North 12.7 mph 21.9 mph N/A   Overcast
1:00 PM 46.4 °F 39.8 °F 39.2 °F 76% 29.99 in 9.0 mi NNW 16.1 mph 21.9 mph N/A   Overcast
2:00 PM 48.2 °F - 37.4 °F 66% 30.00 in 9.0 mi North 16.1 mph 25.3 mph N/A   Overcast
3:00 PM 48.2 °F - 37.4 °F 66% 30.01 in 9.0 mi NNW 18.4 mph 26.5 mph N/A   Overcast
4:00 PM 46.4 °F 40.1 °F 37.4 °F 71% 30.03 in 9.0 mi North 15.0 mph 21.9 mph N/A   Overcast
5:00 PM 44.6 °F 36.9 °F 35.6 °F 71% 30.03 in 9.0 mi NNW 18.4 mph 28.8 mph N/A   Overcast
6:00 PM 44.6 °F 36.6 °F 35.6 °F 71% 30.05 in 9.0 mi NNW 19.6 mph 27.6 mph N/A   Overcast
7:00 PM 44.6 °F 36.6 °F 33.8 °F 66% 30.07 in 9.0 mi NNW 19.6 mph 25.3 mph N/A   Overcast
8:00 PM 42.8 °F 36.2 °F 33.8 °F 70% 30.08 in 9.0 mi NNW 12.7 mph 21.9 mph N/A   Overcast
9:00 PM 42.8 °F 37.5 °F 33.8 °F 70% 30.10 in 9.0 mi North 9.2 mph 17.3 mph N/A   Overcast
10:00 PM 41.0 °F 33.9 °F 33.8 °F 76% 30.11 in 9.0 mi North 12.7 mph 20.7 mph N/A   Overcast
11:00 PM 41.0 °F 34.3 °F 33.8 °F 76% 30.11 in 9.0 mi North 11.5 mph 19.6 mph N/A   Overcast